| time (UTC) | temp F | wind direction | speed MPH | gust MPH | rain 1hr in | rain 24hr in | rain mn in | humidity % | barometer mb |
| 20260504215737 | 58 | 88 | 1.0 | 2.0 | 0.00 | 0.00 | 0.00 | 76 | 1016.5 |
| 20260504215237 | 58 | 252 | 0.0 | 1.0 | 0.00 | 0.00 | 0.00 | 76 | 1016.6 |
| 20260504214737 | 58 | 252 | 0.0 | 3.0 | 0.00 | 0.00 | 0.00 | 76 | 1016.6 |
| 20260504214237 | 58 | 130 | 2.0 | 3.0 | 0.00 | 0.00 | 0.00 | 76 | 1016.7 |
| 20260504213737 | 58 | 111 | 1.0 | 3.0 | 0.00 | 0.00 | 0.00 | 75 | 1016.7 |
| 20260504213240 | 58 | 121 | 2.0 | 4.0 | 0.00 | 0.00 | 0.00 | 75 | 1016.6 |
| 20260504212740 | 58 | 122 | 3.0 | 5.0 | 0.00 | 0.00 | 0.00 | 75 | 1016.7 |
| 20260504212240 | 58 | 127 | 3.0 | 5.0 | 0.00 | 0.00 | 0.00 | 75 | 1016.7 |
| 20260504211743 | 59 | 142 | 3.0 | 5.0 | 0.00 | 0.00 | 0.00 | 74 | 1016.7 |
| 20260504211240 | 59 | 121 | 2.0 | 3.0 | 0.00 | 0.00 | 0.00 | 74 | 1016.7 |
| 20260504210740 | 59 | 173 | 1.0 | 4.0 | 0.00 | 0.00 | 0.00 | 74 | 1016.7 |
| 20260504210237 | 59 | 128 | 3.0 | 5.0 | 0.00 | 0.00 | 0.00 | 74 | 1016.7 |
| 20260504205737 | 59 | 148 | 3.0 | 4.0 | 0.00 | 0.00 | 0.00 | 74 | 1016.7 |
| 20260504205242 | 59 | 126 | 2.0 | 5.0 | 0.00 | 0.00 | 0.00 | 73 | 1016.7 |
| 20260504204740 | 59 | 140 | 3.0 | 4.0 | 0.00 | 0.00 | 0.00 | 73 | 1016.8 |
| 20260504204237 | 59 | 128 | 2.0 | 4.0 | 0.00 | 0.00 | 0.00 | 73 | 1016.9 |
| 20260504203737 | 59 | 120 | 2.0 | 5.0 | 0.00 | 0.00 | 0.00 | 73 | 1016.9 |
| 20260504203237 | 60 | 121 | 4.0 | 6.0 | 0.00 | 0.00 | 0.00 | 73 | 1016.8 |
| 20260504202737 | 60 | 135 | 0.0 | 4.0 | 0.00 | 0.00 | 0.00 | 72 | 1016.9 |
| 20260504202243 | 60 | 125 | 2.0 | 3.0 | 0.00 | 0.00 | 0.00 | 72 | 1016.9 |
| 20260504201740 | 60 | 149 | 2.0 | 3.0 | 0.00 | 0.00 | 0.00 | 72 | 1016.8 |
| 20260504201246 | 60 | 119 | 2.0 | 5.0 | 0.00 | 0.00 | 0.00 | 72 | 1016.7 |
| 20260504200740 | 60 | 150 | 3.0 | 4.0 | 0.00 | 0.00 | 0.00 | 72 | 1016.7 |
| 20260504200237 | 60 | 139 | 2.0 | 4.0 | 0.00 | 0.00 | 0.00 | 72 | 1016.6 |
| 20260504195743 | 60 | 134 | 2.0 | 3.0 | 0.00 | 0.00 | 0.00 | 72 | 1016.6 |
| 20260504195243 | 60 | 121 | 3.0 | 3.0 | 0.00 | 0.00 | 0.00 | 72 | 1016.6 |
| 20260504194737 | 60 | 125 | 2.0 | 3.0 | 0.00 | 0.00 | 0.00 | 71 | 1016.5 |
| 20260504194240 | 60 | 173 | 0.0 | 5.0 | 0.00 | 0.00 | 0.00 | 71 | 1016.5 |
| 20260504193737 | 61 | 160 | 4.0 | 4.0 | 0.00 | 0.00 | 0.00 | 71 | 1016.4 |
| 20260504193243 | 61 | 159 | 0.0 | 3.0 | 0.00 | 0.00 | 0.00 | 71 | 1016.4 |
| 20260504192737 | 61 | 176 | 0.0 | 2.0 | 0.00 | 0.00 | 0.00 | 71 | 1016.4 |
| 20260504192237 | 61 | 202 | 0.0 | 3.0 | 0.00 | 0.00 | 0.00 | 70 | 1016.3 |
| 20260504191737 | 62 | 260 | 3.0 | 5.0 | 0.00 | 0.00 | 0.00 | 70 | 1016.2 |
| 20260504191240 | 62 | 246 | 1.0 | 4.0 | 0.00 | 0.00 | 0.00 | 70 | 1016.1 |
| 20260504190742 | 62 | 196 | 1.0 | 7.0 | 0.00 | 0.00 | 0.00 | 69 | 1016.0 |
| 20260504190239 | 62 | 268 | 4.0 | 6.0 | 0.00 | 0.00 | 0.00 | 68 | 1015.9 |
| 20260504185737 | 62 | 254 | 3.0 | 5.0 | 0.00 | 0.00 | 0.00 | 68 | 1015.8 |
| 20260504185240 | 63 | 171 | 1.0 | 5.0 | 0.00 | 0.00 | 0.00 | 67 | 1015.6 |
| 20260504184742 | 63 | 123 | 1.0 | 5.0 | 0.00 | 0.00 | 0.00 | 67 | 1015.6 |
| 20260504184239 | 63 | 130 | 3.0 | 10.0 | 0.00 | 0.00 | 0.00 | 65 | 1015.6 |
| 20260504183745 | 63 | 47 | 1.0 | 8.0 | 0.00 | 0.00 | 0.00 | 64 | 1015.6 |
| 20260504183236 | 63 | 162 | 5.0 | 8.0 | 0.00 | 0.00 | 0.00 | 64 | 1015.7 |
| 20260504182740 | 63 | 159 | 1.0 | 5.0 | 0.00 | 0.00 | 0.00 | 65 | 1015.6 |
| 20260504182245 | 64 | 233 | 3.0 | 4.0 | 0.00 | 0.00 | 0.00 | 65 | 1015.6 |
| 20260504181737 | 64 | 150 | 3.0 | 6.0 | 0.00 | 0.00 | 0.00 | 66 | 1015.5 |
| 20260504181237 | 64 | 230 | 0.0 | 6.0 | 0.00 | 0.00 | 0.00 | 66 | 1015.6 |
| 20260504180736 | 64 | 197 | 0.0 | 4.0 | 0.00 | 0.00 | 0.00 | 66 | 1015.5 |
| 20260504180236 | 64 | 205 | 1.0 | 7.0 | 0.00 | 0.00 | 0.00 | 65 | 1015.5 |
| 20260504175742 | 64 | 310 | 1.0 | 7.0 | 0.00 | 0.00 | 0.00 | 64 | 1015.4 |
| 20260504175240 | 64 | 261 | 3.0 | 6.0 | 0.00 | 0.00 | 0.00 | 64 | 1015.4 |
| 20260504174740 | 65 | 0 | 2.0 | 4.0 | 0.00 | 0.00 | 0.00 | 64 | 1015.4 |
| 20260504174236 | 65 | 188 | 0.0 | 4.0 | 0.00 | 0.00 | 0.00 | 64 | 1015.3 |
| 20260504173737 | 65 | 140 | 1.0 | 7.0 | 0.00 | 0.00 | 0.00 | 64 | 1015.2 |
| 20260504173236 | 66 | 228 | 0.0 | 5.0 | 0.00 | 0.00 | 0.00 | 62 | 1015.1 |
| 20260504172739 | 66 | 157 | 1.0 | 8.0 | 0.00 | 0.00 | 0.00 | 62 | 1015.1 |
| 20260504172236 | 66 | 217 | 3.0 | 5.0 | 0.00 | 0.00 | 0.00 | 62 | 1015.1 |
| 20260504171736 | 67 | 327 | 0.0 | 4.0 | 0.00 | 0.00 | 0.00 | 61 | 1015.1 |
| 20260504171236 | 67 | 245 | 3.0 | 10.0 | 0.00 | 0.00 | 0.00 | 60 | 1015.1 |
| 20260504170736 | 67 | 84 | 1.0 | 6.0 | 0.00 | 0.00 | 0.00 | 60 | 1015.1 |
| 20260504170240 | 67 | 173 | 6.0 | 8.0 | 0.00 | 0.00 | 0.00 | 59 | 1014.9 |
| 20260504160236 | 69 | 230 | 0.0 | 4.0 | 0.00 | 0.00 | 0.00 | 51 | 1014.8 |
| 20260504150743 | 70 | 312 | 3.0 | 8.0 | 0.00 | 0.00 | 0.00 | 48 | 1014.9 |
| 20260504150236 | 70 | 278 | 7.0 | 7.0 | 0.00 | 0.00 | 0.00 | 49 | 1014.9 |
| 20260504141243 | 71 | 227 | 6.0 | 10.0 | 0.00 | 0.00 | 0.00 | 44 | 1014.9 |
| 20260504140737 | 72 | 203 | 1.0 | 10.0 | 0.00 | 0.00 | 0.00 | 40 | 1015.0 |
| 20260504140242 | 72 | 180 | 4.0 | 10.0 | 0.00 | 0.00 | 0.00 | 43 | 1014.9 |
| 20260504130739 | 70 | 163 | 1.0 | 7.0 | 0.00 | 0.00 | 0.00 | 48 | 1015.5 |
| 20260504130236 | 70 | 301 | 5.0 | 6.0 | 0.00 | 0.00 | 0.00 | 46 | 1015.5 |
| 20260504120242 | 70 | 171 | 4.0 | 10.0 | 0.00 | 0.00 | 0.00 | 46 | 1015.9 |
| 20260504110236 | 69 | 217 | 5.0 | 9.0 | 0.00 | 0.00 | 0.00 | 46 | 1016.2 |
| 20260504100236 | 67 | 233 | 2.0 | 10.0 | 0.00 | 0.00 | 0.00 | 49 | 1016.8 |
| 20260504081737 | 61 | 259 | 2.0 | 4.0 | 0.00 | 0.00 | 0.00 | 65 | 1017.1 |
| 20260504081245 | 61 | 296 | 3.0 | 4.0 | 0.00 | 0.00 | 0.00 | 63 | 1017.2 |
| 20260504080736 | 62 | 209 | 3.0 | 4.0 | 0.00 | 0.00 | 0.00 | 64 | 1017.1 |
| 20260504080239 | 61 | 215 | 0.0 | 3.0 | 0.00 | 0.00 | 0.00 | 65 | 1017.2 |
| 20260504070236 | 54 | 269 | 1.0 | 1.0 | 0.00 | 0.00 | 0.00 | 78 | 1017.6 |
| 20260504060239 | 50 | 105 | 0.0 | 0.0 | 0.00 | 0.00 | 0.00 | 85 | 1017.5 |
| 20260504050739 | 47 | 105 | 1.0 | 1.0 | 0.00 | 0.00 | 0.00 | 82 | 1017.2 |
| 20260504050236 | 47 | 105 | 0.0 | 2.0 | 0.00 | 0.00 | 0.00 | 82 | 1017.2 |
| 20260504045739 | 47 | 105 | 1.0 | 2.0 | 0.00 | 0.00 | 0.00 | 82 | 1017.2 |
| 20260504045236 | 47 | 105 | 0.0 | 0.0 | 0.00 | 0.00 | 0.00 | 82 | 1017.2 |
| 20260504044736 | 47 | 105 | 0.0 | 0.0 | 0.00 | 0.00 | 0.00 | 82 | 1017.2 |
| 20260504044242 | 47 | 105 | 0.0 | 2.0 | 0.00 | 0.00 | 0.00 | 82 | 1017.1 |
| 20260504043736 | 47 | 105 | 2.0 | 2.0 | 0.00 | 0.00 | 0.00 | 82 | 1017.1 |
| 20260504043236 | 47 | 105 | 0.0 | 0.0 | 0.00 | 0.00 | 0.00 | 82 | 1017.0 |
| 20260504042739 | 47 | 105 | 0.0 | 1.0 | 0.00 | 0.00 | 0.00 | 82 | 1017.1 |
| 20260504042236 | 46 | 105 | 1.0 | 1.0 | 0.00 | 0.00 | 0.00 | 82 | 1016.9 |
| 20260504041736 | 46 | 105 | 0.0 | 2.0 | 0.00 | 0.00 | 0.00 | 82 | 1017.0 |
| 20260504041236 | 47 | 105 | 1.0 | 3.0 | 0.00 | 0.00 | 0.00 | 82 | 1016.9 |
| 20260504040736 | 47 | 105 | 0.0 | 0.0 | 0.00 | 0.00 | 0.00 | 81 | 1016.9 |
| 20260504040236 | 47 | 105 | 0.0 | 0.0 | 0.00 | 0.00 | 0.00 | 81 | 1016.9 |
| 20260504035745 | 47 | 105 | 0.0 | 0.0 | 0.00 | 0.00 | 0.00 | 82 | 1016.9 |
| 20260504035239 | 46 | 105 | 0.0 | 0.0 | 0.00 | 0.00 | 0.00 | 82 | 1016.9 |
| 20260504034736 | 46 | 105 | 0.0 | 0.0 | 0.00 | 0.00 | 0.00 | 81 | 1016.9 |
| 20260504034236 | 47 | 105 | 0.0 | 0.0 | 0.00 | 0.00 | 0.00 | 80 | 1016.9 |
| 20260504033745 | 47 | 105 | 0.0 | 0.0 | 0.00 | 0.00 | 0.00 | 80 | 1016.9 |
| 20260504033239 | 47 | 105 | 0.0 | 0.0 | 0.00 | 0.00 | 0.00 | 80 | 1016.9 |
| 20260504032736 | 47 | 105 | 0.0 | 0.0 | 0.00 | 0.00 | 0.00 | 80 | 1016.9 |
| 20260504032239 | 47 | 105 | 0.0 | 0.0 | 0.00 | 0.00 | 0.00 | 80 | 1016.9 |
| 20260504031739 | 47 | 105 | 0.0 | 0.0 | 0.00 | 0.00 | 0.00 | 80 | 1016.9 |
| 20260504031242 | 47 | 105 | 0.0 | 0.0 | 0.00 | 0.00 | 0.00 | 81 | 1017.0 |
| 20260504030745 | 47 | 105 | 0.0 | 1.0 | 0.00 | 0.00 | 0.00 | 80 | 1017.0 |
| 20260504030236 | 47 | 105 | 0.0 | 2.0 | 0.00 | 0.00 | 0.00 | 80 | 1017.0 |
| 20260504025740 | 47 | 105 | 0.0 | 1.0 | 0.00 | 0.00 | 0.00 | 79 | 1017.0 |
| 20260504025242 | 47 | 105 | 0.0 | 0.0 | 0.00 | 0.00 | 0.00 | 79 | 1017.0 |
| 20260504024736 | 47 | 105 | 0.0 | 1.0 | 0.00 | 0.00 | 0.00 | 80 | 1017.0 |
| 20260504024236 | 47 | 105 | 1.0 | 2.0 | 0.00 | 0.00 | 0.00 | 80 | 1017.1 |
| 20260504023736 | 47 | 150 | 1.0 | 2.0 | 0.00 | 0.00 | 0.00 | 80 | 1017.1 |
| 20260504023239 | 47 | 162 | 1.0 | 2.0 | 0.00 | 0.00 | 0.00 | 80 | 1017.2 |
| 20260504022739 | 47 | 161 | 0.0 | 2.0 | 0.00 | 0.00 | 0.00 | 79 | 1017.2 |
| 20260504022238 | 47 | 192 | 0.0 | 1.0 | 0.00 | 0.00 | 0.00 | 79 | 1017.2 |
| 20260504021740 | 48 | 138 | 0.0 | 1.0 | 0.00 | 0.00 | 0.00 | 78 | 1017.2 |
| 20260504021237 | 48 | 139 | 0.0 | 0.0 | 0.00 | 0.00 | 0.00 | 78 | 1017.3 |
| 20260504020746 | 48 | 138 | 0.0 | 0.0 | 0.00 | 0.00 | 0.00 | 78 | 1017.3 |
| 20260504020245 | 48 | 138 | 0.0 | 2.0 | 0.00 | 0.00 | 0.00 | 77 | 1017.3 |
| 20260504015739 | 48 | 138 | 1.0 | 1.0 | 0.00 | 0.00 | 0.00 | 78 | 1017.3 |
| 20260504015242 | 48 | 138 | 0.0 | 2.0 | 0.00 | 0.00 | 0.00 | 77 | 1017.4 |
| 20260504014739 | 48 | 138 | 2.0 | 3.0 | 0.00 | 0.00 | 0.00 | 78 | 1017.3 |
| 20260504014236 | 48 | 138 | 2.0 | 3.0 | 0.00 | 0.00 | 0.00 | 78 | 1017.4 |
| 20260504013739 | 48 | 138 | 2.0 | 2.0 | 0.00 | 0.00 | 0.00 | 76 | 1017.4 |
| 20260504013236 | 48 | 138 | 0.0 | 1.0 | 0.00 | 0.00 | 0.00 | 74 | 1017.4 |
| 20260504012736 | 48 | 138 | 0.0 | 0.0 | 0.00 | 0.00 | 0.00 | 75 | 1017.5 |
| 20260504012239 | 49 | 138 | 0.0 | 1.0 | 0.00 | 0.00 | 0.00 | 76 | 1017.5 |
| 20260504011736 | 49 | 138 | 0.0 | 0.0 | 0.00 | 0.00 | 0.00 | 75 | 1017.4 |
| 20260504011236 | 49 | 138 | 0.0 | 0.0 | 0.00 | 0.00 | 0.00 | 77 | 1017.5 |
| 20260504010739 | 49 | 139 | 0.0 | 0.0 | 0.00 | 0.00 | 0.00 | 76 | 1017.5 |
| 20260504010236 | 49 | 138 | 0.0 | 1.0 | 0.00 | 0.00 | 0.00 | 76 | 1017.5 |
| 20260504005742 | 49 | 138 | 1.0 | 2.0 | 0.00 | 0.00 | 0.00 | 76 | 1017.4 |
| 20260504005239 | 49 | 138 | 2.0 | 3.0 | 0.00 | 0.00 | 0.00 | 78 | 1017.4 |
| 20260504004736 | 49 | 138 | 1.0 | 2.0 | 0.00 | 0.00 | 0.00 | 78 | 1017.4 |
| 20260504004240 | 50 | 138 | 1.0 | 2.0 | 0.00 | 0.00 | 0.00 | 77 | 1017.5 |
| 20260504003739 | 50 | 139 | 1.0 | 3.0 | 0.00 | 0.00 | 0.00 | 76 | 1017.6 |
| 20260504003242 | 50 | 139 | 0.0 | 2.0 | 0.00 | 0.00 | 0.00 | 74 | 1017.6 |
| 20260504002739 | 50 | 138 | 2.0 | 2.0 | 0.00 | 0.00 | 0.00 | 74 | 1017.7 |
| 20260504002236 | 50 | 138 | 0.0 | 2.0 | 0.00 | 0.00 | 0.00 | 73 | 1017.7 |
| 20260504001738 | 50 | 139 | 1.0 | 3.0 | 0.00 | 0.00 | 0.00 | 75 | 1017.8 |
| 20260504001245 | 50 | 138 | 3.0 | 3.0 | 0.00 | 0.00 | 0.00 | 75 | 1017.8 |
| 20260504000736 | 50 | 150 | 2.0 | 3.0 | 0.00 | 0.00 | 0.00 | 76 | 1017.8 |
| 20260504000236 | 50 | 150 | 0.0 | 1.0 | 0.00 | 0.00 | 0.00 | 71 | 1017.8 |
| 20260503235736 | 51 | 150 | 1.0 | 1.0 | 0.00 | 0.00 | 0.00 | 73 | 1017.8 |
| 20260503235236 | 51 | 150 | 0.0 | 2.0 | 0.00 | 0.00 | 0.00 | 73 | 1017.9 |
| 20260503234736 | 51 | 150 | 2.0 | 2.0 | 0.00 | 0.00 | 0.00 | 74 | 1017.8 |
| 20260503234242 | 51 | 150 | 2.0 | 2.0 | 0.00 | 0.00 | 0.00 | 72 | 1018.0 |
| 20260503233736 | 52 | 150 | 2.0 | 3.0 | 0.00 | 0.00 | 0.00 | 73 | 1018.1 |
| 20260503233236 | 52 | 150 | 1.0 | 2.0 | 0.00 | 0.00 | 0.00 | 71 | 1018.1 |
| 20260503232739 | 52 | 96 | 0.0 | 1.0 | 0.00 | 0.00 | 0.00 | 67 | 1018.1 |
| 20260503232236 | 52 | 96 | 1.0 | 2.0 | 0.00 | 0.00 | 0.00 | 68 | 1018.1 |
| 20260503231739 | 52 | 136 | 2.0 | 2.0 | 0.00 | 0.00 | 0.00 | 71 | 1018.1 |
| 20260503231242 | 52 | 136 | 0.0 | 2.0 | 0.00 | 0.00 | 0.00 | 70 | 1018.1 |
| 20260503230736 | 52 | 136 | 1.0 | 2.0 | 0.00 | 0.00 | 0.00 | 73 | 1018.1 |
| 20260503230236 | 52 | 136 | 1.0 | 3.0 | 0.00 | 0.00 | 0.00 | 75 | 1018.1 |
| 20260503225736 | 52 | 136 | 2.0 | 3.0 | 0.00 | 0.00 | 0.00 | 74 | 1018.1 |
| 20260503225239 | 53 | 121 | 1.0 | 2.0 | 0.00 | 0.00 | 0.00 | 72 | 1018.1 |
| 20260503224742 | 53 | 121 | 1.0 | 3.0 | 0.00 | 0.00 | 0.00 | 69 | 1018.1 |
| 20260503224236 | 54 | 89 | 1.0 | 1.0 | 0.00 | 0.00 | 0.00 | 68 | 1018.2 |
| 20260503223736 | 54 | 89 | 0.0 | 0.0 | 0.00 | 0.00 | 0.00 | 65 | 1018.3 |
| 20260503223236 | 54 | 89 | 0.0 | 2.0 | 0.00 | 0.00 | 0.00 | 62 | 1018.2 |
| 20260503222736 | 54 | 85 | 0.0 | 2.0 | 0.00 | 0.00 | 0.00 | 60 | 1018.2 |
| 20260503222239 | 54 | 95 | 1.0 | 2.0 | 0.00 | 0.00 | 0.00 | 62 | 1018.2 |
| 20260503221742 | 54 | 123 | 1.0 | 3.0 | 0.00 | 0.00 | 0.00 | 67 | 1018.2 |
| 20260503221236 | 54 | 124 | 2.0 | 3.0 | 0.00 | 0.00 | 0.00 | 70 | 1018.2 |
| 20260503220739 | 54 | 126 | 3.0 | 2.0 | 0.00 | 0.00 | 0.00 | 69 | 1018.2 |
| 20260503220236 | 54 | 126 | 0.0 | 3.0 | 0.00 | 0.00 | 0.00 | 67 | 1018.2 |